Location: Butte
(46.0040°N, 112.5340°W)
Time: 16:32:35
(UTC-06:00)

Daily predictions for brighter satellites

Satellite Brightness Start Highest point End
(mag) Time Altitude Azimuth Time Altitude Azimuth Time Altitude Azimuth
Cosmos 2322 3.8 20:46:20 10° SSW 20:52:01 88° WNW 20:57:44 10° NNE
Thor Agena Rocket 3.7 20:47:57 10° NNE 20:53:05 53° E 20:58:13 10° S
HJ-1C 4.4 20:52:34 10° S 20:55:49 49° W 20:59:07 10° NNW
Cosmos 2074 Rocket 4.3 20:49:55 10° SSW 20:56:14 80° W 21:02:34 10° N
Cosmos 1939 Rocket 3.0 20:52:59 10° SSE 20:56:45 54° ENE 21:00:35 10° N
Resurs 1-3 3.8 20:54:41 10° SSE 20:58:57 54° ENE 21:03:16 10° N
BREEZE-M DEB (TANK) 2.9 20:56:39 10° WNW 21:01:57 60° N 21:04:15 10° E
Cosmos 220 Rocket 4.4 20:57:50 10° N 21:02:02 45° ENE 21:06:10 10° SE
Meteor 2-3 Rocket 3.9 20:56:46 10° N 21:02:15 52° ENE 21:07:44 10° SSE
Cosmos 1610 Rocket 4.5 20:56:49 10° S 21:02:56 80° E 21:09:08 10° N
Sich 1 3.0 20:58:44 10° N 21:03:02 79° E 21:07:18 10° SSE
Cosmos 1151 Rocket 4.1 21:03:34 10° SE 21:07:03 25° E 21:10:33 10° NNE
NOSS 2-1 (C) 3.1 21:06:20 10° SSW 21:09:56 73° SE 21:14:01 10° NE
Cosmos 1300 4.4 21:06:29 10° SSW 21:10:05 39° WNW 21:13:43 10° N
NOSS 2-1 (D) 3.1 21:07:18 10° SSW 21:10:54 76° SE 21:15:00 10° NE
ARGOS 4.3 21:07:19 10° ESE 21:11:45 27° ENE 21:16:12 10° N
Spot 2 Rocket 3.6 21:08:07 10° SSE 21:13:08 59° ENE 21:18:09 10° N
Cosmos 1809 Rocket 4.5 21:08:19 10° S 21:14:29 86° E 21:20:43 10° N
Lacrosse 5 3.9 21:10:39 10° NW 21:14:44 23° N 21:18:48 10° NE
ATLAS 2AS CENTAUR R/B 3.0 21:07:21 10° NW 21:15:24 79° NE 21:22:42 10° SE
Cosmos 1633 Rocket 3.1 21:19:12 10° N 21:23:34 84° W 21:27:55 10° S
Nadezhda 3 Rocket 4.2 21:17:17 10° N 21:23:37 82° W 21:29:57 10° S
Cosmos 2360 Rocket 3.8 21:20:42 10° WSW 21:25:58 39° NW 21:31:14 10° NNE
Cosmos 1980 4.1 21:21:40 10° S 21:26:54 40° ESE 21:32:10 10° NE
Meteor 2-14 Rocket 4.5 21:26:12 10° S 21:32:18 88° E 21:38:28 10° N
Cosmos 1408 2.9 21:30:01 10° N 21:33:33 46° ENE 21:36:08 17° SSE
Cosmos 1455 2.1 21:30:02 10° S 21:33:52 83° E 21:37:45 10° N
Meteor 1-27 4.2 21:28:44 10° S 21:34:27 76° E 21:40:07 10° NNE
Cosmos 2333 Rocket 2.1 21:29:51 10° SSW 21:35:29 72° ESE 21:41:08 10° NNE
ERS-2 4.0 21:32:27 10° SSW 21:35:44 31° W 21:39:03 10° NW
Cosmos 1515 Rocket 3.7 21:32:06 10° S 21:36:26 54° E 21:40:49 10° NNE
Cosmos 2228 Rocket 3.2 21:32:19 10° S 21:36:34 54° E 21:40:53 10° NNE
Cosmos 1892 3.7 21:34:26 10° NNW 21:38:11 48° W 21:41:55 10° SSW
COSMOS 2428 3.2 21:35:04 10° SW 21:40:45 66° WNW 21:46:29 10° NNE
Cosmos 1844 Rocket 3.9 21:35:44 10° NW 21:41:00 40° WSW 21:46:14 10° S
NOSS 2-1 (E) 3.8 21:37:41 10° SW 21:41:20 63° NW 21:45:36 10° NE
Meteor 2-16 Rocket 4.4 21:35:41 10° S 21:41:49 87° E 21:47:59 10° N
NOSS 3-4 (A) 4.3 21:38:56 10° NNW 21:45:38 50° NE 21:51:01 18° ESE
NOSS 3-4 (C) 4.3 21:39:02 10° NNW 21:45:44 50° NE 21:51:06 18° ESE
SL-8 R/B 4.2 21:42:53 10° SSW 21:47:16 37° SE 21:50:54 14° E
USA 245 4.5 21:48:38 14° ENE 21:48:38 14° ENE 21:49:37 10° NE
Cosmos 407 Rocket 4.2 21:43:47 10° N 21:48:35 38° ENE 21:51:22 22° ESE
H-2A R/B 2.5 21:48:28 21° SE 21:51:26 42° ENE 21:56:07 10° N
Genesis I 3.7 21:48:47 10° NW 21:52:49 58° WSW 21:55:26 20° SSE
ERS-1 Rocket 3.6 21:50:13 22° SE 21:53:01 40° ENE 21:57:42 10° N
Cosmos 2219 Rocket 2.5 21:48:11 10° SSW 21:53:49 73° WNW 21:59:29 10° NNE
Cosmos 2237 Rocket 2.2 21:48:55 10° S 21:54:26 60° ESE 21:59:59 10° NNE
NOSS 3-3 (A) 4.0 21:48:27 10° SW 21:54:32 86° NW 22:01:19 10° NE
NOSS 3-3 (C) 4.0 21:48:33 10° SW 21:54:38 87° NW 22:01:25 10° NE
Cosmos 1328 Rocket 4.0 21:51:59 10° SSW 21:56:21 65° W 22:00:48 10° N
MetOp-A 4.2 21:53:47 20° SSE 21:57:30 63° ENE 22:02:48 10° N
Cosmos 1371 Rocket 4.3 21:53:42 10° S 21:58:45 47° ESE 22:03:53 10° NNE
NOSS 3 (A) 4.4 21:56:30 10° SSW 21:59:14 60° SE 22:02:22 10° NE
USA 267 4.0 21:54:19 10° ENE 21:59:42 27° SE 22:05:04 10° S
Resurs 01 Rocket 3.0 21:55:35 10° SSW 21:59:43 37° W 22:03:52 10° NNW
Cosmos 2278 Rocket 2.3 21:55:40 10° NNW 22:01:22 79° WSW 22:05:28 19° SSE
Cosmos 405 Rocket 4.1 22:03:13 22° E 22:03:13 22° E 22:05:58 10° NE
SL-08 RB Rocket 3.9 22:02:53 28° SE 22:04:59 54° ENE 22:09:22 10° N
Cosmos 1470 Rocket 4.1 22:01:26 10° NNW 22:05:46 57° W 22:09:51 11° S
ATLAS 5 CENTAUR R/B 4.2 22:03:40 10° NNW 22:07:42 20° NNE 22:12:02 10° ENE
ATLAS CENTAUR R/B 1.4 22:06:21 10° SW 22:10:02 70° NW 22:13:55 10° NNE
Cosmos 1727 Rocket 4.0 22:06:22 10° N 22:12:33 68° E 22:16:20 24° SSE
Cosmos 1959 Rocket 4.4 22:09:12 10° S 22:15:22 86° E 22:21:31 10° N
Cosmos 1825 2.8 22:15:31 10° NNW 22:19:14 53° W 22:21:24 22° SSW
Cosmos 2056 Rocket 3.6 22:15:53 15° S 22:20:20 58° ESE 22:25:38 10° NNE
Cosmos 405 2.8 22:18:03 10° N 22:21:34 72° E 22:22:04 59° SE
Cosmos 2098 Rocket 2.9 22:20:02 18° S 22:23:30 88° E 22:27:18 10° N
OE (NEXTSAT) 4.3 22:22:18 10° W 22:25:52 90° SSW 22:26:27 61° E
Cosmos 2218 Rocket 4.2 22:24:09 10° SSW 22:30:30 75° W 22:36:56 10° N
Cosmos 1933 4.4 22:33:06 30° ENE 22:33:06 30° ENE 22:36:03 10° NNE
USA 234 4.1 22:30:25 16° E 22:35:20 44° NNE 22:41:28 10° NW
Cosmos 1624 Rocket 3.9 22:32:55 13° SSW 22:37:29 84° ESE 22:42:43 10° NNE
NOSS 0 Rocket 4.5 22:31:43 10° SW 22:37:48 60° WNW 22:43:57 10° NNE
Cosmos 1190 Rocket 4.0 22:33:49 10° NNW 22:39:08 81° WSW 22:41:05 40° S
Cosmos 1869 4.2 22:38:19 17° SSW 22:41:12 49° WNW 22:45:08 10° N
Cosmos 2366 rocket 4.3 22:37:06 10° SSW 22:43:17 66° WNW 22:49:34 10° N
SL-16 R/B 2.1 22:41:17 31° S 22:43:54 62° ESE 22:49:30 10° NNE
Terra 2.5 22:43:59 36° E 22:44:29 37° ENE 22:48:52 10° N
Cosmos 1140 Rocket 3.6 22:40:32 10° NNW 22:45:42 61° ENE 22:46:47 49° ESE
GEOS 3 Rocket 3.5 22:40:36 10° NE 22:45:57 66° SE 22:51:12 10° SSW
Cosmos 1707 Rocket 3.4 22:50:41 68° ESE 22:50:48 69° E 22:55:06 10° NNE
ARGOS 3.9 22:48:41 23° SSW 22:51:46 47° W 22:56:56 10° NNW
Cosmos 1954 Rocket 3.9 22:47:16 10° NNW 22:52:30 71° ENE 22:53:30 56° SE
Cosmos 1943 Rocket 3.8 22:48:56 10° N 22:53:09 22° NE 22:54:52 19° ENE
CZ-2C R/B 3.9 22:55:28 30° ENE 22:55:39 30° ENE 22:59:49 10° N
CZ-4C R/B 3.8 22:58:25 19° ENE 22:58:25 19° ENE 23:00:32 10° ENE
Helios 1B rocket 2.7 22:52:35 10° NNE 22:56:07 55° ENE 22:56:07 55° ENE
Cosmos 1869 Rocket 3.8 22:52:22 10° NNW 22:56:43 63° W 22:57:35 50° SW
Lacrosse 5 3.2 22:54:21 10° NW 22:58:57 33° NNE 23:01:09 23° ENE
SPOT 5 2.7 22:58:33 64° S 22:59:16 82° WSW 23:03:45 10° NNW
ATLAS 2AS CENTAUR R/B 4.4 22:59:23 10° NW 23:05:35 27° WSW 23:10:10 15° SSW
CARTOSAT-1 3.7 23:08:49 65° NE 23:08:49 65° NE 23:12:51 10° N
Cosmos 1733 Rocket 3.5 23:04:44 10° N 23:08:32 49° NE 23:08:32 49° NE
Cosmos 1441 Rocket 3.8 23:09:54 51° WNW 23:09:55 51° WNW 23:13:37 10° N
DMSP B5D2-2 4.0 23:05:53 10° NNE 23:11:11 85° WNW 23:12:37 50° SSW
Cosmos 2297 4.1 23:07:06 10° NW 23:12:38 54° WSW 23:14:04 43° SSW
Cosmos 2344 3.5 23:08:24 26° SSW 23:12:53 62° ESE 23:21:08 10° NE
Helios 1A 3.7 23:12:28 43° WSW 23:12:54 45° W 23:16:57 10° NNW
Cosmos 2369 Rocket 2.8 23:15:54 10° NNW 23:21:20 43° NE 23:22:03 41° ENE
SPOT 1/Viking Rocket 3.9 23:21:26 49° SW 23:22:27 57° W 23:27:37 10° NNW
BREEZE M DEB (TANK) 4.0 23:08:44 10° W 23:23:19 70° NNW 23:25:52 29° ENE
RESURS DK-1 4.0 23:20:33 10° N 23:23:37 26° NE 23:23:37 26° NE
Cosmos 1420 Rocket 4.0 23:25:28 67° ENE 23:25:28 67° ENE 23:30:25 10° NNE
Cosmos 2242 Rocket 4.3 23:27:42 44° NE 23:27:42 44° NE 23:30:53 10° NNE
Meteor 2-17 Rocket 4.4 23:26:28 59° ESE 23:26:46 59° E 23:32:48 10° NNE
Meteor 1-25 Rocket 4.2 23:22:50 10° N 23:28:36 67° ENE 23:28:53 66° E
BREEZE-M DEB (TANK) 4.3 22:58:17 10° WNW 23:29:23 79° SSW 23:31:53 49° SE
SL-8 R/B 3.9 23:24:47 10° WSW 23:28:58 67° W 23:28:58 67° W
H-2A R/B 3.7 23:29:05 21° SW 23:31:00 26° W 23:35:10 10° NW
Meteor 1-26 Rocket 4.0 23:33:20 79° ESE 23:33:23 79° E 23:38:57 10° NNE
Cosmos 1437 Rocket 3.8 23:30:19 10° NNW 23:33:02 44° NNW 23:33:02 44° NNW
Cosmos 614 Rocket 4.4 23:29:17 10° NNW 23:34:21 52° WSW 23:34:42 51° WSW
NOSS 3-4 (A) 4.4 23:29:57 10° NW 23:36:38 46° WSW 23:38:28 39° SSW
NOSS 3-4 (C) 4.4 23:30:03 10° NW 23:36:45 47° WSW 23:38:33 40° SSW
Cosmos 405 Rocket 4.5 23:38:21 27° W 23:38:46 28° WNW 23:42:11 10° N
Cosmos 2237 Rocket 4.2 23:34:15 10° WSW 23:38:54 26° NW 23:43:35 10° N
Cosmos 1934 Rocket 3.8 23:39:15 71° S 23:39:59 89° E 23:46:05 10° N
IGS 5A 4.3 23:41:25 47° WNW 23:41:25 47° WNW 23:44:48 10° NNW
CZ-2C R/B 3.4 23:35:44 10° NNE 23:39:42 39° ENE 23:39:42 39° ENE
USA 267 3.1 23:36:42 10° NE 23:43:16 87° SE 23:49:50 10° SW
ATLAS 5 CENTAUR R/B 2.6 23:47:46 10° NNW 23:53:31 58° NE 23:54:11 55° ENE
